Location: Burbank
(38.7788°N, 114.0429°W)
Time: 01:03:06
(UTC+00:00)

Transit 2A Rocket - All Passes

Search period start: 12 May 2026 00:00
Search period end: 22 May 2026 00:00
Orbit: 587 x 895 km, 66.7° (Epoch: 11 May)

Date Brightness Start Highest point End Pass type
(mag) Time Alt. Az. Time Alt. Az. Time Alt. Az.
12 May - 01:28:33 10° SE 01:30:40 12° ESE 01:32:45 10° E daylight
12 May - 03:06:36 10° SSW 03:12:25 88° WNW 03:17:50 10° NNE visible
12 May - 04:52:18 10° W 04:55:25 15° NW 04:58:27 10° N visible
12 May - 11:51:18 10° NNW 11:55:41 46° ENE 11:59:49 10° SE visible
12 May - 13:35:01 10° WNW 13:37:29 15° WSW 13:39:55 10° SW daylight
13 May - 02:21:09 10° S 02:26:45 51° ESE 02:31:59 10° NE daylight
13 May - 04:04:44 10° WSW 04:09:19 25° NW 04:13:40 10° N visible
13 May - 11:06:03 10° N 11:09:46 24° NE 11:13:18 10° ESE visible
13 May - 12:48:09 10° NW 12:52:04 31° WSW 12:55:51 10° S daylight
14 May - 01:36:21 10° SSE 01:41:10 28° ESE 01:45:44 10° NE daylight
14 May - 03:17:58 10° SW 03:23:22 42° WNW 03:28:26 10° NNE visible
14 May - 10:21:20 10° NNE 10:23:38 14° NE 10:25:54 10° ENE visible
14 May - 12:02:05 10° NNW 12:06:32 68° WSW 12:10:45 10° SSE daylight
15 May - 00:52:40 10° SE 00:55:43 15° ESE 00:58:40 10° ENE daylight
15 May - 02:31:47 10° SSW 02:37:34 75° WNW 02:42:55 10° NNE daylight
15 May - 04:18:15 10° WNW 04:20:41 13° NW 04:23:04 10° NNW visible
15 May - 11:16:22 10° NNW 11:20:49 56° ENE 11:25:01 10° SE visible
15 May - 13:00:53 10° W 13:02:29 12° WSW 13:04:03 10° SW daylight
16 May - 01:46:10 10° SSW 01:51:51 61° ESE 01:57:09 10° NE daylight
16 May - 03:30:19 10° W 03:34:32 21° NW 03:38:33 10° N visible
16 May - 10:31:00 10° N 10:34:56 28° NE 10:38:40 10° ESE visible
16 May - 12:13:28 10° NW 12:17:06 25° WSW 12:20:36 10° SSW daylight
17 May - 01:01:11 10° S 01:06:15 33° ESE 01:11:02 10° NE daylight
17 May - 02:43:21 10° WSW 02:48:33 36° NW 02:53:25 10° NNE daylight
17 May - 09:46:05 10° N 09:48:52 16° NE 09:51:34 10° E visible
17 May - 11:27:14 10° NW 11:31:35 54° WSW 11:35:44 10° SSE visible
18 May - 00:17:05 10° SSE 00:20:45 18° ESE 00:24:17 10° ENE daylight
18 May - 01:57:02 10° SW 02:02:42 64° WNW 02:07:59 10° NNE daylight
18 May - 03:44:33 10° WNW 03:45:58 11° NW 03:47:22 10° NNW visible
18 May - 10:41:27 10° NNW 10:45:55 70° ENE 10:50:10 10° SE visible
19 May - 01:11:15 10° SSW 01:16:58 72° ESE 01:22:17 10° NNE daylight
19 May - 02:55:58 10° W 02:59:46 18° NW 03:03:23 10° N daylight
19 May - 09:55:59 10° NNW 10:00:05 34° NE 10:04:00 10° ESE visible
19 May - 11:38:52 10° WNW 11:42:06 20° WSW 11:45:17 10° SSW visible
20 May - 00:26:04 10° S 00:31:20 38° ESE 00:36:17 10° NE daylight
20 May - 02:08:48 10° WSW 02:13:45 31° NW 02:18:22 10° N daylight
20 May - 09:10:55 10° N 09:14:05 18° NE 09:17:08 10° E visible
20 May - 10:52:26 10° NW 10:56:38 43° WSW 11:00:40 10° S visible
20 May - 23:41:40 10° SSE 23:45:49 21° ESE 23:49:47 10° ENE daylight
21 May - 01:22:17 10° SW 01:27:51 54° WNW 01:33:01 10° NNE daylight
21 May - 08:27:08 10° NNE 08:27:54 10° NE 08:28:40 10° NE visible
21 May - 10:06:33 10° NNW 10:11:00 86° ENE 10:15:16 10° SSE visible
21 May - 22:59:30 10° ESE 23:00:24 10° ESE 23:01:16 10° E daylight
